Weather in Krayneye

Russia / Republic of Crimea     45°13′39″N   33°50′09″E
temp.,
°C
wind,
m/s
gust,
m/s
humid.,
%
clouds,
%
prec.,
mm/h
press.,
hPa
HPBL,
m
3 march, wed
wed300:00+3sw6118115 0.0 1024401
03:00+6w7118049 0.0 1023669
06:00+2nnw5107793 0.0 1023608
09:00+4nnw696891 0.0 10261044
12:00+7n68530 0.0 10261019
15:00+8nnw56470 0.0 10271351
18:00+7nw46520 0.0 1027468
21:00+4wnw35720 0.0 1029117
4 march, thu
thu400:00+3w22780 0.0 102823
03:00+2ssw22814 0.0 102824
06:00+1s33840 0.0 102639
09:00+4ssw47700 0.0 1025302
12:00+8sw67540 0.0 1024938
15:00+8sw79570 0.0 1022826
18:00+6sw711690 0.0 1020732
21:00+5ssw712770 0.0 1020559
5 march, fri
fri500:00+5ssw713780 0.0 1018552
03:00+5ssw714790 0.0 1017510
06:00+4ssw713820 0.0 1016443
09:00+7ssw813694 0.0 1015532
12:00+10ssw1014580 0.0 1014721
15:00+11sw1115620 0.0 1012710
18:00+9sw10147621 0.0 1012607
21:00+7ssw8139024 0.0 1013456
6 march, sat
sat600:00+7ssw6129342 0.0 1013353
03:00+6ssw499539 0.0 1014175
06:00+5nnw469541 0.0 1015126
09:00+4nne588370 0.0 1016418
12:00+3n6792100 0.3 1018366
15:00+6nne5759100 0.7 1019945
18:00+4n5744100 0.0 10201358
21:00+2n3850100 0.1 1023362
7 march, sun
sun700:000nnw235640 0.0 102531
03:00−1nnw377220 0.0 1027189
06:00−2nnw12600 0.0 102721
09:00+1ssw33420 0.0 1028200
12:00+5wsw573712 0.0 10271881
15:00+5w684054 0.0 10251881
18:00+4wsw574756 0.0 10231245
21:00+1sw366028 0.0 1022109